,,Stat6,,Stat2,,Stat8,,Stat9,,Stat10,,Wind1,,Wind1,
time,status,PA1M_AVG,status,PR1M_SUM,status,RH1M_AVG,status,SR1M_AVG,status,TA1M_AVG,status,W1dAve1m,status,W1sAve1m,
2006-05-04, 00:00:00,VALID,918.94,VALID,0,VALID,99.2335,VALID,-0.152827,VALID,19.7237,VALID,94,VALID,0.724382,
2006-05-04, 00:01:00,VALID,918.916,VALID,0,VALID,98.9906,VALID,-0.220751,VALID,18.899,VALID,94,VALID,0.417492,
2006-05-04, 00:02:00,VALID,918.913,VALID,0,VALID,98.9118,VALID,-0.237732,VALID,19.4979,VALID,94,VALID,0.37157,
2006-05-04, 00:03:00,VALID,918.914,VALID,0,VALID,98.6841,VALID,-0.237732,VALID,19.0799,VALID,94,VALID,0.0455412,
2006-05-04, 00:04:00,VALID,918.922,VALID,0,VALID,98.4998,VALID,-0.237732,VALID,19.5692,VALID,94,VALID,0.139062,
2006-05-04, 00:05:00,VALID,918.931,VALID,0,VALID,98.0242,VALID,-0.220751,VALID,19.6446,VALID,94,VALID,0,
2006-05-04, 00:06:00,VALID,918.92,VALID,0,VALID,98.2518,VALID,-0.20377,VALID,20.2939,VALID,94,VALID,0,
2006-05-04, 00:07:00,VALID,918.926,VALID,0,VALID,98.1094,VALID,-0.152827,VALID,18.8191,VALID,94,VALID,0.116257,
2006-05-04, 00:08:00,VALID,918.92,VALID,0,VALID,97.9174,VALID,-0.135847,VALID,19.7426,VALID,94,VALID,0.310082,
2006-05-04, 00:09:00,VALID,918.923,VALID,0,VALID,98.4146,VALID,-0.152827,VALID,20.0791,VALID,95,VALID,0.373547,
2006-05-04, 00:10:00,VALID,918.916,VALID,0,VALID,98.482,VALID,-0.118866,VALID,18.6678,VALID,95,VALID,0,
2006-05-04, 00:11:00,VALID,918.909,VALID,0,VALID,98.3624,VALID,-0.152827,VALID,19.0579,VALID,95,VALID,0,
2006-05-04, 00:12:00,VALID,918.901,VALID,0,VALID,98.0585,VALID,-0.118866,VALID,20.4297,VALID,95,VALID,0,
2006-05-04, 00:13:00,VALID,918.898,VALID,0,VALID,97.9581,VALID,-0.254712,VALID,19.4831,VALID,95,VALID,0,
2006-05-04, 00:14:00,VALID,918.898,VALID,0,VALID,97.9186,VALID,-0.271693,VALID,19.2605,VALID,95,VALID,0,
2006-05-04, 00:15:00,VALID,918.904,VALID,0,VALID,98.0229,VALID,-0.237732,VALID,18.9495,VALID,95,VALID,0,
2006-05-04, 00:16:00,VALID,918.913,VALID,0,VALID,98.0165,VALID,-0.135847,VALID,19.8897,VALID,95,VALID,0,
2006-05-04, 00:17:00,VALID,918.909,VALID,0,VALID,97.7012,VALID,-0.118866,VALID,19.0253,VALID,93,VALID,0.304869,
2006-05-04, 00:18:00,VALID,918.922,VALID,0,VALID,98.2073,VALID,-0.220751,VALID,19.3941,VALID,86,VALID,0.416146,
2006-05-04, 00:19:00,VALID,918.934,VALID,0,VALID,98.6511,VALID,-0.285532,VALID,18.5767,VALID,86,VALID,0.403888,
2006-05-04, 00:20:00,VALID,918.925,VALID,0,VALID,98.7655,VALID,-0.169808,VALID,20.3051,VALID,74,VALID,0.520833,
2006-05-04, 00:21:00,VALID,918.928,VALID,0,VALID,98.6981,VALID,-0.237732,VALID,19.4712,VALID,63,VALID,0.729992,
2006-05-04, 00:22:00,VALID,918.896,VALID,0,VALID,98.5137,VALID,-0.254712,VALID,20.2502,VALID,59,VALID,0.805778,
2006-05-04, 00:23:00,VALID,918.887,VALID,0,VALID,98.5061,VALID,-0.220751,VALID,18.9085,VALID,59,VALID,0.789435,
2006-05-04, 00:24:00,VALID,918.852,VALID,0,VALID,98.9881,VALID,-0.101885,VALID,19.0396,VALID,59,VALID,0.835366,
2006-05-04, 00:25:00,VALID,918.837,VALID,0,VALID,99.409,VALID,-0.169808,VALID,19.4332,VALID,65,VALID,0.788318,
2006-05-04, 00:26:00,VALID,918.821,VALID,0,VALID,99.6493,VALID,-0.169808,VALID,18.8244,VALID,66,VALID,0.657885,
2006-05-04, 00:27:00,VALID,918.795,VALID,0,VALID,99.8451,VALID,-0.152827,VALID,19.5983,VALID,79,VALID,0.76527,
2006-05-04, 00:28:00,VALID,918.782,VALID,0,VALID,99.737,VALID,-0.237732,VALID,19.7641,VALID,78,VALID,0.436012,
2006-05-04, 00:29:00,VALID,918.761,VALID,0,VALID,99.6251,VALID,-0.271693,VALID,19.1456,VALID,78,VALID,0.260764,
2006-05-04, 00:30:00,VALID,918.749,VALID,0,VALID,99.5921,VALID,-0.254712,VALID,20.0311,VALID,78,VALID,0.13891,
2006-05-04, 00:31:00,VALID,918.737,VALID,0,VALID,99.3543,VALID,-0.220751,VALID,18.8761,VALID,78,VALID,0.00400152,
2006-05-04, 00:32:00,VALID,918.717,VALID,0,VALID,98.8329,VALID,-0.118866,VALID,19.1461,VALID,78,VALID,0,
2006-05-04, 00:33:00,VALID,918.697,VALID,0,VALID,98.8253,VALID,-0.186789,VALID,19.4503,VALID,78,VALID,0,
2006-05-04, 00:34:00,VALID,918.666,VALID,0,VALID,99.0275,VALID,-0.152827,VALID,18.422,VALID,78,VALID,0,
2006-05-04, 00:35:00,VALID,918.653,VALID,0,VALID,99.2907,VALID,-0.152827,VALID,18.7878,VALID,78,VALID,0.194741,
2006-05-04, 00:36:00,VALID,918.636,VALID,0,VALID,99.3327,VALID,-0.220751,VALID,19.4287,VALID,83,VALID,0.50436,
2006-05-04, 00:37:00,VALID,918.614,VALID,0,VALID,99.5844,VALID,-0.152827,VALID,19.8193,VALID,126,VALID,0.652926,
2006-05-04, 00:38:00,VALID,918.618,VALID,0,VALID,99.9008,VALID,-0.271693,VALID,19.6376,VALID,159,VALID,0.647104,
2006-05-04, 00:39:00,VALID,918.605,VALID,0,VALID,100,VALID,-0.254712,VALID,19.4741,VALID,148,VALID,0.724219,
2006-05-04, 00:40:00,VALID,918.6,VALID,0,VALID,100,VALID,-0.220751,VALID,20.8584,VALID,152,VALID,0.698438,
2006-05-04, 00:41:00,VALID,918.602,VALID,0,VALID,100,VALID,-0.254712,VALID,19.4555,VALID,151,VALID,0.484738,
2006-05-04, 00:42:00,VALID,918.597,VALID,0,VALID,99.8362,VALID,-0.169808,VALID,20.256,VALID,149,VALID,0.61684,
2006-05-04, 00:43:00,VALID,918.603,VALID,0,VALID,99.8426,VALID,-0.186789,VALID,19.2876,VALID,149,VALID,0.489826,
2006-05-04, 00:44:00,VALID,918.605,VALID,0,VALID,99.7281,VALID,-0.186789,VALID,19.4599,VALID,127,VALID,0.541921,
2006-05-04, 00:45:00,VALID,918.607,VALID,0,VALID,99.2742,VALID,-0.169808,VALID,19.3463,VALID,118,VALID,0.493331,
2006-05-04, 00:46:00,VALID,918.59,VALID,0,VALID,98.9448,VALID,-0.135847,VALID,18.9686,VALID,113,VALID,0.366461,
2006-05-04, 00:47:00,VALID,918.587,VALID,0,VALID,98.8838,VALID,-0.152827,VALID,18.504,VALID,108,VALID,0.447856,
2006-05-04, 00:48:00,VALID,918.577,VALID,0,VALID,98.8482,VALID,-0.169808,VALID,18.7288,VALID,87,VALID,0.573918,
2006-05-04, 00:49:00,VALID,918.564,VALID,0,VALID,99.7897,VALID,-0.169808,VALID,19.3423,VALID,86,VALID,0.647195,
2006-05-04, 00:50:00,VALID,918.573,VALID,0,VALID,100,VALID,-0.169808,VALID,19.6552,VALID,86,VALID,0.445135,
2006-05-04, 00:51:00,VALID,918.589,VALID,0,VALID,100,VALID,-0.118866,VALID,18.5151,VALID,86,VALID,0.330357,
2006-05-04, 00:52:00,VALID,918.585,VALID,0,VALID,100,VALID,-0.152827,VALID,18.3499,VALID,86,VALID,0.270064,
2006-05-04, 00:53:00,VALID,918.576,VALID,0,VALID,100,VALID,-0.186789,VALID,19.0555,VALID,86,VALID,0.371528,
2006-05-04, 00:54:00,VALID,918.59,VALID,0,VALID,100,VALID,-0.186789,VALID,19.8182,VALID,86,VALID,0.448264,
2006-05-04, 00:55:00,VALID,918.583,VALID,0,VALID,100,VALID,-0.186789,VALID,20.2443,VALID,107,VALID,0.542783,
2006-05-04, 00:56:00,VALID,918.583,VALID,0,VALID,100,VALID,-0.186789,VALID,19.4136,VALID,130,VALID,0.535511,
2006-05-04, 00:57:00,VALID,918.584,VALID,0,VALID,100,VALID,-0.169808,VALID,18.1681,VALID,131,VALID,0.546693,
2006-05-04, 00:58:00,VALID,918.583,VALID,0,VALID,100,VALID,-0.169808,VALID,20.1902,VALID,122,VALID,0.532315,
2006-05-04, 00:59:00,VALID,918.568,VALID,0,VALID,99.5524,VALID,-0.186789,VALID,19.4397,VALID,99,VALID,0.524132,
2006-05-04, 01:00:00,VALID,918.563,VALID,0,VALID,99.4433,VALID,-0.152827,VALID,19.2917,VALID,76,VALID,0.695668,
2006-05-04, 01:01:00,VALID,918.56,VALID,0,VALID,99.6048,VALID,-0.20377,VALID,20.8363,VALID,75,VALID,0.71946,
2006-05-04, 01:02:00,VALID,918.538,VALID,0,VALID,99.9611,VALID,-0.20377,VALID,19.408,VALID,75,VALID,0.588844,
2006-05-04, 01:03:00,VALID,918.53,VALID,0,VALID,100,VALID,-0.152827,VALID,18.5563,VALID,81,VALID,0.708705,
2006-05-04, 01:04:00,VALID,918.505,VALID,0,VALID,100,VALID,-0.186789,VALID,19.2475,VALID,99,VALID,0.675037,
2006-05-04, 01:05:00,VALID,918.506,VALID,0,VALID,100,VALID,-0.20377,VALID,19.7627,VALID,121,VALID,0.74349,
2006-05-04, 01:06:00,VALID,918.49,VALID,0,VALID,100,VALID,-0.186789,VALID,19.5042,VALID,117,VALID,0.727493,
2006-05-04, 01:07:00,VALID,918.487,VALID,0,VALID,100,VALID,-0.118866,VALID,19.0184,VALID,141,VALID,0.520232,
2006-05-04, 01:08:00,VALID,918.475,VALID,0,VALID,100,VALID,-0.152827,VALID,19.37,VALID,148,VALID,0.573361,
2006-05-04, 01:09:00,VALID,918.473,VALID,0,VALID,100,VALID,-0.169808,VALID,18.8896,VALID,153,VALID,0.836868,
2006-05-04, 01:10:00,VALID,918.457,VALID,0,VALID,100,VALID,-0.118866,VALID,19.3893,VALID,161,VALID,0.859933,
2006-05-04, 01:11:00,VALID,918.461,VALID,0,VALID,100,VALID,-0.135847,VALID,18.9143,VALID,157,VALID,0.809956,
2006-05-04, 01:12:00,VALID,918.454,VALID,0,VALID,100,VALID,-0.20377,VALID,18.2825,VALID,152,VALID,0.619531,
2006-05-04, 01:13:00,VALID,918.456,VALID,0,VALID,100,VALID,-0.135847,VALID,19.309,VALID,118,VALID,0.587054,
2006-05-04, 01:14:00,VALID,918.458,VALID,0,VALID,100,VALID,-0.186789,VALID,20.298,VALID,108,VALID,0.614702,
2006-05-04, 01:15:00,VALID,918.43,VALID,0,VALID,100,VALID,-0.118866,VALID,18.7168,VALID,77,VALID,0.694382,
2006-05-04, 01:16:00,VALID,918.421,VALID,0,VALID,100,VALID,-0.237732,VALID,19.0511,VALID,76,VALID,0.629192,
2006-05-04, 01:17:00,VALID,918.391,VALID,0,VALID,100,VALID,-0.237732,VALID,19.0792,VALID,76,VALID,0.534201,
2006-05-04, 01:18:00,VALID,918.369,VALID,0,VALID,100,VALID,-0.118866,VALID,18.5857,VALID,76,VALID,0.586979,
2006-05-04, 01:19:00,VALID,918.336,VALID,0,VALID,100,VALID,-0.152827,VALID,18.6116,VALID,86,VALID,0.841619,
2006-05-04, 01:20:00,VALID,918.297,VALID,0,VALID,100,VALID,-0.169808,VALID,17.7635,VALID,110,VALID,1.02269,
2006-05-04, 01:21:00,VALID,918.283,VALID,0,VALID,100,VALID,-0.237732,VALID,18.8171,VALID,110,VALID,1.03143,
2006-05-04, 01:22:00,VALID,918.259,VALID,0,VALID,100,VALID,-0.20377,VALID,18.9608,VALID,114,VALID,1.20153,
2006-05-04, 01:23:00,VALID,918.235,VALID,0,VALID,100,VALID,-0.20377,VALID,18.5072,VALID,117,VALID,1.23597,
2006-05-04, 01:24:00,VALID,918.215,VALID,0,VALID,100,VALID,-0.254712,VALID,20.453,VALID,119,VALID,1.1012,
2006-05-04, 01:25:00,VALID,918.203,VALID,0,VALID,100,VALID,-0.271693,VALID,18.7088,VALID,131,VALID,1.10855,
2006-05-04, 01:26:00,VALID,918.213,VALID,0,VALID,100,VALID,-0.237732,VALID,18.9521,VALID,124,VALID,1.37155,
2006-05-04, 01:27:00,VALID,918.199,VALID,0,VALID,100,VALID,-0.271693,VALID,18.5279,VALID,117,VALID,1.32738,
2006-05-04, 01:28:00,VALID,918.202,VALID,0,VALID,100,VALID,-0.237732,VALID,18.8225,VALID,120,VALID,1.20011,
2006-05-04, 01:29:00,VALID,918.19,VALID,0,VALID,100,VALID,-0.152827,VALID,19.3925,VALID,122,VALID,1.19436,
2006-05-04, 01:30:00,VALID,918.182,VALID,0,VALID,100,VALID,-0.152827,VALID,18.6441,VALID,123,VALID,1.12062,
2006-05-04, 01:31:00,VALID,918.162,VALID,0,VALID,100,VALID,-0.186789,VALID,19.5461,VALID,109,VALID,1.02823,
2006-05-04, 01:32:00,VALID,918.136,VALID,0,VALID,100,VALID,-0.135847,VALID,18.9394,VALID,100,VALID,0.760417,
2006-05-04, 01:33:00,VALID,918.117,VALID,0,VALID,100,VALID,-0.152827,VALID,19.714,VALID,113,VALID,1.04015,
2006-05-04, 01:34:00,VALID,918.099,VALID,0,VALID,100,VALID,-0.101885,VALID,18.2848,VALID,114,VALID,1.02269,
2006-05-04, 01:35:00,VALID,918.075,VALID,0,VALID,100,VALID,-0.135847,VALID,18.9922,VALID,118,VALID,1.05434,
2006-05-04, 01:36:00,VALID,918.06,VALID,0,VALID,100,VALID,-0.135847,VALID,18.6767,VALID,121,VALID,0.980183,
2006-05-04, 01:37:00,VALID,918.032,VALID,0,VALID,100,VALID,-0.152827,VALID,19.4255,VALID,118,VALID,0.913517,
2006-05-04, 01:38:00,VALID,918.018,VALID,0,VALID,100,VALID,-0.152827,VALID,19.7738,VALID,117,VALID,0.895419,
2006-05-04, 01:39:00,VALID,918.01,VALID,0,VALID,100,VALID,-0.20377,VALID,19.4002,VALID,117,VALID,0.768532,
2006-05-04, 01:40:00,VALID,917.992,VALID,0,VALID,100,VALID,-0.220751,VALID,18.125,VALID,116,VALID,0.638765,
2006-05-04, 01:41:00,VALID,917.996,VALID,0,VALID,100,VALID,-0.271693,VALID,18.9184,VALID,114,VALID,0.329613,
2006-05-04, 01:42:00,VALID,917.992,VALID,0,VALID,100,VALID,-0.254712,VALID,18.4577,VALID,108,VALID,0.334794,
2006-05-04, 01:43:00,VALID,917.987,VALID,0,VALID,100,VALID,-0.220751,VALID,16.8327,VALID,55,VALID,0.452934,
2006-05-04, 01:44:00,VALID,917.986,VALID,0,VALID,100,VALID,-0.220751,VALID,19.0724,VALID,55,VALID,0.412729,
2006-05-04, 01:45:00,VALID,917.978,VALID,0,VALID,100,VALID,-0.20377,VALID,19.2604,VALID,17,VALID,0.435213,
2006-05-04, 01:46:00,VALID,917.961,VALID,0,VALID,100,VALID,-0.169808,VALID,18.6788,VALID,315,VALID,0.688388,
2006-05-04, 01:47:00,VALID,917.941,VALID,0,VALID,100,VALID,-0.220751,VALID,18.8101,VALID,308,VALID,0.486662,
2006-05-04, 01:48:00,VALID,917.928,VALID,0,VALID,100,VALID,-0.20377,VALID,17.7402,VALID,308,VALID,0.305596,
2006-05-04, 01:49:00,VALID,917.883,VALID,0,VALID,100,VALID,-0.135847,VALID,18.994,VALID,308,VALID,0.176054,
2006-05-04, 01:50:00,VALID,917.861,VALID,0,VALID,100,VALID,-0.237732,VALID,18.4363,VALID,308,VALID,0,
2006-05-04, 01:51:00,VALID,917.833,VALID,0,VALID,100,VALID,-0.186789,VALID,18.9405,VALID,308,VALID,0.000181686,
2006-05-04, 01:52:00,VALID,917.813,VALID,0,VALID,100,VALID,-0.186789,VALID,18.5486,VALID,308,VALID,0.000822368,
2006-05-04, 01:53:00,VALID,917.812,VALID,0,VALID,100,VALID,-0.135847,VALID,18.7551,VALID,308,VALID,0.0130208,
2006-05-04, 01:54:00,VALID,917.818,VALID,0,VALID,100,VALID,-0.152827,VALID,18.759,VALID,308,VALID,0.0279018,
2006-05-04, 01:55:00,VALID,917.821,VALID,0,VALID,100,VALID,-0.135847,VALID,19.1539,VALID,308,VALID,0.0995164,
2006-05-04, 01:56:00,VALID,917.823,VALID,0,VALID,100,VALID,-0.169808,VALID,19.6703,VALID,308,VALID,0.115699,
2006-05-04, 01:57:00,VALID,917.823,VALID,0,VALID,100,VALID,-0.152827,VALID,18.8383,VALID,308,VALID,0,
2006-05-04, 01:58:00,VALID,917.812,VALID,0,VALID,100,VALID,-0.169808,VALID,18.7796,VALID,308,VALID,0,
2006-05-04, 01:59:00,VALID,917.794,VALID,0,VALID,100,VALID,-0.152827,VALID,19.0687,VALID,308,VALID,0,
2006-05-04, 02:00:00,VALID,917.791,VALID,0,VALID,100,VALID,-0.169808,VALID,18.5387,VALID,308,VALID,0.139695,
2006-05-04, 02:01:00,VALID,917.788,VALID,0,VALID,100,VALID,-0.20377,VALID,19.702,VALID,15,VALID,0.466797,
2006-05-04, 02:02:00,VALID,917.774,VALID,0,VALID,100,VALID,-0.220751,VALID,18.8074,VALID,127,VALID,0.841654,
2006-05-04, 02:03:00,VALID,917.761,VALID,0,VALID,100,VALID,-0.271693,VALID,18.4605,VALID,127,VALID,1.23521,
2006-05-04, 02:04:00,VALID,917.743,VALID,0,VALID,100,VALID,-0.152827,VALID,18.9826,VALID,128,VALID,1.16733,
2006-05-04, 02:05:00,VALID,917.727,VALID,0,VALID,100,VALID,-0.135847,VALID,17.9895,VALID,126,VALID,0.8212,
2006-05-04, 02:06:00,VALID,917.703,VALID,0,VALID,100,VALID,-0.20377,VALID,17.921,VALID,132,VALID,0.767833,
2006-05-04, 02:07:00,VALID,917.694,VALID,0,VALID,100,VALID,-0.271693,VALID,18.9595,VALID,132,VALID,0.962754,
2006-05-04, 02:08:00,VALID,917.68,VALID,0,VALID,100,VALID,-0.186789,VALID,18.0551,VALID,130,VALID,0.799479,
2006-05-04, 02:09:00,VALID,917.685,VALID,0,VALID,100,VALID,-0.20377,VALID,18.6459,VALID,120,VALID,0.674055,
2006-05-04, 02:10:00,VALID,917.694,VALID,0,VALID,100,VALID,-0.20377,VALID,19.0325,VALID,110,VALID,0.60766,
2006-05-04, 02:11:00,VALID,917.711,VALID,0,VALID,100,VALID,-0.186789,VALID,18.0119,VALID,97,VALID,0.671875,
2006-05-04, 02:12:00,VALID,917.722,VALID,0,VALID,100,VALID,-0.186789,VALID,18.3003,VALID,94,VALID,0.681176,
2006-05-04, 02:13:00,VALID,917.735,VALID,0,VALID,100,VALID,-0.20377,VALID,18.0582,VALID,105,VALID,0.862282,
2006-05-04, 02:14:00,VALID,917.73,VALID,0,VALID,100,VALID,-0.20377,VALID,19.1698,VALID,108,VALID,0.540305,
2006-05-04, 02:15:00,VALID,917.716,VALID,0,VALID,100,VALID,-0.169808,VALID,17.9439,VALID,115,VALID,0.509673,
2006-05-04, 02:16:00,VALID,917.702,VALID,0,VALID,100,VALID,-0.186789,VALID,18.5577,VALID,130,VALID,0.736281,
2006-05-04, 02:17:00,VALID,917.688,VALID,0,VALID,100,VALID,-0.169808,VALID,17.973,VALID,130,VALID,1.0585,
2006-05-04, 02:18:00,VALID,917.683,VALID,0,VALID,100,VALID,-0.186789,VALID,19.2817,VALID,128,VALID,1.30487,
2006-05-04, 02:19:00,VALID,917.673,VALID,0,VALID,100,VALID,-0.186789,VALID,18.7501,VALID,128,VALID,1.22408,
2006-05-04, 02:20:00,VALID,917.667,VALID,0,VALID,100,VALID,-0.186789,VALID,18.5283,VALID,123,VALID,1.27307,
2006-05-04, 02:21:00,VALID,917.663,VALID,0,VALID,100,VALID,-0.186789,VALID,18.5463,VALID,115,VALID,1.32848,
2006-05-04, 02:22:00,VALID,917.654,VALID,0,VALID,100,VALID,-0.152827,VALID,18.3484,VALID,104,VALID,0.957889,
2006-05-04, 02:23:00,VALID,917.656,VALID,0,VALID,100,VALID,-0.20377,VALID,19.7136,VALID,123,VALID,0.852095,
2006-05-04, 02:24:00,VALID,917.639,VALID,0,VALID,100,VALID,-0.288674,VALID,18.1638,VALID,131,VALID,0.594105,
2006-05-04, 02:25:00,VALID,917.635,VALID,0,VALID,100,VALID,-0.288674,VALID,17.9838,VALID,131,VALID,0.280048,
2006-05-04, 02:26:00,VALID,917.633,VALID,0,VALID,100,VALID,-0.271693,VALID,18.0616,VALID,131,VALID,0.247337,
2006-05-04, 02:27:00,VALID,917.63,VALID,0,VALID,100,VALID,-0.186789,VALID,18.4906,VALID,131,VALID,0.128729,
2006-05-04, 02:28:00,VALID,917.619,VALID,0,VALID,100,VALID,-0.186789,VALID,17.4215,VALID,131,VALID,0.31359,
2006-05-04, 02:29:00,VALID,917.62,VALID,0,VALID,100,VALID,-0.152827,VALID,18.3573,VALID,131,VALID,0.341654,
2006-05-04, 02:30:00,VALID,917.62,VALID,0,VALID,100,VALID,-0.20377,VALID,18.4475,VALID,111,VALID,0.443182,
2006-05-04, 02:31:00,VALID,917.634,VALID,0,VALID,100,VALID,-0.152827,VALID,19.2438,VALID,73,VALID,0.708133,
2006-05-04, 02:32:00,VALID,917.634,VALID,0,VALID,100,VALID,-0.118866,VALID,18.7143,VALID,60,VALID,1.01067,
2006-05-04, 02:33:00,VALID,917.657,VALID,0,VALID,100,VALID,-0.135847,VALID,18.5493,VALID,59,VALID,1.21689,
2006-05-04, 02:34:00,VALID,917.658,VALID,0,VALID,100,VALID,-0.118866,VALID,18.471,VALID,62,VALID,1.0638,
2006-05-04, 02:35:01,VALID,917.664,VALID,0,VALID,100,VALID,-0.135847,VALID,18.5708,VALID,86,VALID,0.932958,
2006-05-04, 02:36:00,VALID,917.659,VALID,0,VALID,100,VALID,-0.118866,VALID,19.1664,VALID,106,VALID,0.893821,
2006-05-04, 02:37:00,VALID,917.652,VALID,0,VALID,100,VALID,-0.169808,VALID,17.7442,VALID,113,VALID,1.00182,
2006-05-04, 02:38:00,VALID,917.644,VALID,0,VALID,100,VALID,-0.169808,VALID,18.5614,VALID,116,VALID,1.09035,
2006-05-04, 02:39:01,VALID,917.633,VALID,0,VALID,100,VALID,-0.186789,VALID,17.282,VALID,118,VALID,1.13299,
2006-05-04, 02:40:00,VALID,917.625,VALID,0,VALID,100,VALID,-0.135847,VALID,18.6258,VALID,124,VALID,1.2393,
2006-05-04, 02:41:00,VALID,917.607,VALID,0,VALID,100,VALID,-0.169808,VALID,18.4214,VALID,116,VALID,1.14426,
2006-05-04, 02:42:00,VALID,917.588,VALID,0,VALID,100,VALID,-0.169808,VALID,19.0305,VALID,99,VALID,0.893852,
2006-05-04, 02:43:00,VALID,917.588,VALID,0,VALID,100,VALID,-0.169808,VALID,17.5395,VALID,89,VALID,0.81141,
2006-05-04, 02:44:00,VALID,917.573,VALID,0,VALID,100,VALID,-0.135847,VALID,18.7477,VALID,79,VALID,0.664773,
2006-05-04, 02:45:00,VALID,917.557,VALID,0,VALID,100,VALID,-0.152827,VALID,17.9031,VALID,76,VALID,0.44707,
2006-05-04, 02:46:00,VALID,917.561,VALID,0,VALID,100,VALID,-0.186789,VALID,18.0065,VALID,76,VALID,0.349826,
2006-05-04, 02:47:00,VALID,917.57,VALID,0,VALID,100,VALID,-0.186789,VALID,16.995,VALID,73,VALID,0.436942,
2006-05-04, 02:48:00,VALID,917.565,VALID,0,VALID,100,VALID,-0.271693,VALID,18.5503,VALID,59,VALID,0.610973,
2006-05-04, 02:49:01,VALID,917.565,VALID,0,VALID,100,VALID,-0.186789,VALID,17.695,VALID,53,VALID,0.680398,
2006-05-04, 02:50:00,VALID,917.565,VALID,0,VALID,100,VALID,-0.186789,VALID,17.7529,VALID,55,VALID,0.677401,
2006-05-04, 02:51:00,VALID,917.575,VALID,0,VALID,100,VALID,-0.186789,VALID,18.1604,VALID,74,VALID,0.83346,
2006-05-04, 02:52:01,VALID,917.585,VALID,0,VALID,100,VALID,-0.20377,VALID,18.328,VALID,84,VALID,1.07013,
2006-05-04, 02:53:00,VALID,917.578,VALID,0,VALID,100,VALID,-0.220751,VALID,18.9693,VALID,87,VALID,0.986914,
2006-05-04, 02:54:01,VALID,917.571,VALID,0,VALID,100,VALID,-0.20377,VALID,18.4092,VALID,100,VALID,1.01339,
2006-05-04, 02:55:01,VALID,917.553,VALID,0,VALID,100,VALID,-0.220751,VALID,18.4526,VALID,112,VALID,1.46555,
2006-05-04, 02:56:00,VALID,917.552,VALID,0,VALID,100,VALID,-0.20377,VALID,18.9713,VALID,117,VALID,1.62482,
2006-05-04, 02:57:00,VALID,917.544,VALID,0,VALID,100,VALID,-0.237732,VALID,19.4729,VALID,120,VALID,1.69364,
2006-05-04, 02:58:00,VALID,917.53,VALID,0,VALID,100,VALID,-0.271693,VALID,18.5418,VALID,119,VALID,1.75972,
2006-05-04, 02:59:00,VALID,917.536,VALID,0,VALID,100,VALID,-0.220751,VALID,18.1299,VALID,123,VALID,1.76527,
2006-05-04, 03:00:00,VALID,917.522,VALID,0,VALID,100,VALID,-0.220751,VALID,18.4224,VALID,127,VALID,1.34617,
2006-05-04, 03:01:00,VALID,917.523,VALID,0,VALID,100,VALID,-0.20377,VALID,18.7755,VALID,127,VALID,1.44511,
2006-05-04, 03:02:01,VALID,917.485,VALID,0,VALID,100,VALID,-0.20377,VALID,18.6078,VALID,125,VALID,1.41211,
2006-05-04, 03:03:00,VALID,917.472,VALID,0,VALID,100,VALID,-0.220751,VALID,17.9657,VALID,126,VALID,1.21187,
2006-05-04, 03:04:01,VALID,917.475,VALID,0,VALID,100,VALID,-0.20377,VALID,18.4475,VALID,127,VALID,1.39735,
2006-05-04, 03:05:01,VALID,917.468,VALID,0,VALID,100,VALID,-0.20377,VALID,18.9295,VALID,130,VALID,1.20526,
2006-05-04, 03:06:00,VALID,917.47,VALID,0,VALID,100,VALID,-0.220751,VALID,18.3341,VALID,125,VALID,1.20122,
2006-05-04, 03:07:00,VALID,917.467,VALID,0,VALID,100,VALID,-0.186789,VALID,18.7813,VALID,126,VALID,1.04597,
2006-05-04, 03:08:00,VALID,917.463,VALID,0,VALID,100,VALID,-0.186789,VALID,18.4259,VALID,133,VALID,1.0707,
2006-05-04, 03:09:01,VALID,917.47,VALID,0,VALID,100,VALID,-0.186789,VALID,18.8669,VALID,133,VALID,1.30889,
2006-05-04, 03:10:00,VALID,917.479,VALID,0,VALID,100,VALID,-0.152827,VALID,18.5472,VALID,133,VALID,1.08274,
2006-05-04, 03:11:00,VALID,917.452,VALID,0,VALID,100,VALID,-0.135847,VALID,17.4304,VALID,128,VALID,1.39695,
2006-05-04, 03:12:01,VALID,917.454,VALID,0,VALID,100,VALID,-0.169808,VALID,18.3577,VALID,125,VALID,1.70348,
2006-05-04, 03:13:00,VALID,917.441,VALID,0,VALID,100,VALID,-0.186789,VALID,18.0897,VALID,125,VALID,1.52515,
2006-05-04, 03:14:00,VALID,917.425,VALID,0,VALID,100,VALID,-0.169808,VALID,18.4373,VALID,126,VALID,1.49635,
2006-05-04, 03:15:00,VALID,917.425,VALID,0,VALID,100,VALID,-0.20377,VALID,18.3911,VALID,125,VALID,1.30105,
2006-05-04, 03:16:00,VALID,917.434,VALID,0,VALID,100,VALID,-0.186789,VALID,19.2891,VALID,120,VALID,1.63814,
2006-05-04, 03:17:00,VALID,917.443,VALID,0,VALID,100,VALID,-0.135847,VALID,18.2125,VALID,129,VALID,1.36328,
2006-05-04, 03:18:00,VALID,917.458,VALID,0,VALID,100,VALID,-0.186789,VALID,17.7899,VALID,123,VALID,1.05142,
2006-05-04, 03:19:00,VALID,917.472,VALID,0,VALID,100,VALID,-0.186789,VALID,18.552,VALID,136,VALID,1.0343,
2006-05-04, 03:20:00,VALID,917.5,VALID,0,VALID,100,VALID,-0.169808,VALID,18.7066,VALID,137,VALID,0.945313,
2006-05-04, 03:21:00,VALID,917.507,VALID,0,VALID,100,VALID,-0.169808,VALID,19.4818,VALID,138,VALID,0.758539,
2006-05-04, 03:22:01,VALID,917.514,VALID,0,VALID,100,VALID,-0.152827,VALID,18.3822,VALID,152,VALID,0.919513,
2006-05-04, 03:23:00,VALID,917.532,VALID,0,VALID,100,VALID,-0.169808,VALID,18.6092,VALID,152,VALID,0.639931,
2006-05-04, 03:24:00,VALID,917.538,VALID,0,VALID,100,VALID,-0.169808,VALID,19.0919,VALID,151,VALID,0.754972,
2006-05-04, 03:25:01,VALID,917.527,VALID,0,VALID,100,VALID,-0.169808,VALID,18.3815,VALID,151,VALID,1.12035,
2006-05-04, 03:26:00,VALID,917.523,VALID,0,VALID,100,VALID,-0.20377,VALID,17.7295,VALID,147,VALID,1.03639,
2006-05-04, 03:27:01,VALID,917.518,VALID,0,VALID,100,VALID,-0.152827,VALID,17.3885,VALID,144,VALID,1.00223,
2006-05-04, 03:28:00,VALID,917.513,VALID,0,VALID,100,VALID,-0.169808,VALID,17.5502,VALID,136,VALID,1.10957,
2006-05-04, 03:29:00,VALID,917.499,VALID,0,VALID,100,VALID,-0.152827,VALID,18.0414,VALID,137,VALID,1.41311,
2006-05-04, 03:30:00,VALID,917.499,VALID,0,VALID,100,VALID,-0.152827,VALID,18.7651,VALID,145,VALID,1.28385,
2006-05-04, 03:31:01,VALID,917.491,VALID,0,VALID,100,VALID,-0.152827,VALID,17.7407,VALID,142,VALID,1.44798,
2006-05-04, 03:32:00,VALID,917.494,VALID,0,VALID,99.9423,VALID,-0.101885,VALID,18.7534,VALID,137,VALID,1.06337,
2006-05-04, 03:33:00,VALID,917.504,VALID,0,VALID,99.7205,VALID,-0.101885,VALID,18.2454,VALID,138,VALID,1.09319,
2006-05-04, 03:34:00,VALID,917.512,VALID,0,VALID,99.4458,VALID,-0.152827,VALID,18.5951,VALID,139,VALID,0.961496,
2006-05-04, 03:35:01,VALID,917.526,VALID,0,VALID,99.1915,VALID,-0.169808,VALID,18.0891,VALID,136,VALID,0.819957,
2006-05-04, 03:36:00,VALID,917.529,VALID,0,VALID,98.9372,VALID,-0.186789,VALID,18.128,VALID,139,VALID,0.825521,
2006-05-04, 03:37:01,VALID,917.542,VALID,0,VALID,98.8011,VALID,-0.237732,VALID,17.741,VALID,142,VALID,0.564135,
2006-05-04, 03:38:00,VALID,917.555,VALID,0,VALID,98.6447,VALID,-0.867295,VALID,17.6279,VALID,140,VALID,0.322798,